![]() |
EMODnet Physics ERDDAP
Easier access to scientific data |
log in|
Brought to you by EMODnet Physics |
| Dataset Title: | NDBC - Collection of dew point temperature (DEWT) TimeSeries - IN SITU MultiPointTimeSeriesObservation
|
| Institution: | NDBC (Dataset ID: TS_DEWT_NDBC) |
| Information: | Summary
| License
| FGDC
| ISO 19115
| Metadata
| Background
| Subset
| Data Access Form
| Make a graph
|
| Name | Last modified | Size | Description | |
|---|---|---|---|---|
| Parent Directory | - | - | ||
| SLXA2_TS_DEWT_012019.nc | 27-Oct-2024 21:16 | 429906 | ||
| SLXA2_TS_DEWT_012020.nc | 27-Oct-2024 21:16 | 429907 | ||
| SLXA2_TS_DEWT_012021.nc | 27-Oct-2024 21:16 | 587141 | ||
| SLXA2_TS_DEWT_012022.nc | 27-Oct-2024 21:16 | 587005 | ||
| SLXA2_TS_DEWT_012023.nc | 27-Oct-2024 21:16 | 587298 | ||
| SLXA2_TS_DEWT_012024.nc | 27-Oct-2024 21:16 | 587305 | ||
| SLXA2_TS_DEWT_012025.nc | 07-Feb-2025 15:28 | 440222 | ||
| SLXA2_TS_DEWT_012026.nc | 02-Feb-2026 15:18 | 587032 | ||
| SLXA2_TS_DEWT_022018.nc | 27-Oct-2024 21:17 | 587374 | ||
| SLXA2_TS_DEWT_022019.nc | 27-Oct-2024 21:17 | 587244 | ||
| SLXA2_TS_DEWT_022020.nc | 27-Oct-2024 21:17 | 440256 | ||
| SLXA2_TS_DEWT_022021.nc | 27-Oct-2024 21:17 | 440096 | ||
| SLXA2_TS_DEWT_022022.nc | 27-Oct-2024 21:17 | 440254 | ||
| SLXA2_TS_DEWT_022023.nc | 27-Oct-2024 21:17 | 587254 | ||
| SLXA2_TS_DEWT_022024.nc | 16-Sep-2024 16:51 | 587148 | ||
| SLXA2_TS_DEWT_022025.nc | 01-Mar-2025 10:30 | 587385 | ||
| SLXA2_TS_DEWT_022026.nc | 01-Mar-2026 16:47 | 587319 | ||
| SLXA2_TS_DEWT_032018.nc | 27-Oct-2024 21:17 | 587315 | ||
| SLXA2_TS_DEWT_032019.nc | 27-Oct-2024 21:17 | 429568 | ||
| SLXA2_TS_DEWT_032020.nc | 27-Oct-2024 21:17 | 429513 | ||
| SLXA2_TS_DEWT_032021.nc | 27-Oct-2024 21:17 | 429383 | ||
| SLXA2_TS_DEWT_032022.nc | 27-Oct-2024 21:17 | 439558 | ||
| SLXA2_TS_DEWT_032023.nc | 27-Oct-2024 21:17 | 439631 | ||
| SLXA2_TS_DEWT_032025.nc | 02-Apr-2025 08:39 | 440188 | ||
| SLXA2_TS_DEWT_032026.nc | 21-Mar-2026 19:11 | 440145 | ||
| SLXA2_TS_DEWT_042018.nc | 27-Oct-2024 21:17 | 440061 | ||
| SLXA2_TS_DEWT_042019.nc | 27-Oct-2024 21:17 | 436840 | ||
| SLXA2_TS_DEWT_042020.nc | 27-Oct-2024 21:17 | 440294 | ||
| SLXA2_TS_DEWT_042021.nc | 27-Oct-2024 21:17 | 440275 | ||
| SLXA2_TS_DEWT_042022.nc | 27-Oct-2024 21:17 | 439393 | ||
| SLXA2_TS_DEWT_042023.nc | 27-Oct-2024 21:17 | 440005 | ||
| SLXA2_TS_DEWT_042025.nc | 01-May-2025 07:47 | 440011 | ||
| SLXA2_TS_DEWT_052018.nc | 27-Oct-2024 21:18 | 440007 | ||
| SLXA2_TS_DEWT_052019.nc | 27-Oct-2024 21:18 | 440183 | ||
| SLXA2_TS_DEWT_052020.nc | 27-Oct-2024 21:18 | 440275 | ||
| SLXA2_TS_DEWT_052022.nc | 27-Oct-2024 21:18 | 440223 | ||
| SLXA2_TS_DEWT_052023.nc | 27-Oct-2024 21:18 | 429893 | ||
| SLXA2_TS_DEWT_052025.nc | 01-Jun-2025 09:15 | 429891 | ||
| SLXA2_TS_DEWT_062018.nc | 27-Oct-2024 21:18 | 429830 | ||
| SLXA2_TS_DEWT_062019.nc | 27-Oct-2024 21:18 | 587507 | ||
| SLXA2_TS_DEWT_062020.nc | 27-Oct-2024 21:18 | 587295 | ||
| SLXA2_TS_DEWT_062021.nc | 27-Oct-2024 21:18 | 587137 | ||
| SLXA2_TS_DEWT_062022.nc | 27-Oct-2024 21:18 | 587275 | ||
| SLXA2_TS_DEWT_062023.nc | 27-Oct-2024 21:18 | 587292 | ||
| SLXA2_TS_DEWT_062025.nc | 01-Jul-2025 07:40 | 440546 | ||
| SLXA2_TS_DEWT_072018.nc | 27-Oct-2024 21:18 | 440560 | ||
| SLXA2_TS_DEWT_072020.nc | 27-Oct-2024 21:18 | 439932 | ||
| SLXA2_TS_DEWT_072021.nc | 27-Oct-2024 21:18 | 587239 | ||
| SLXA2_TS_DEWT_072022.nc | 27-Oct-2024 21:18 | 587168 | ||
| SLXA2_TS_DEWT_072023.nc | 27-Oct-2024 21:19 | 587150 | ||
| SLXA2_TS_DEWT_072025.nc | 01-Aug-2025 08:22 | 587259 | ||
| SLXA2_TS_DEWT_082018.nc | 27-Oct-2024 21:19 | 437445 | ||
| SLXA2_TS_DEWT_082019.nc | 27-Oct-2024 21:19 | 587294 | ||
| SLXA2_TS_DEWT_082020.nc | 27-Oct-2024 21:19 | 437848 | ||
| SLXA2_TS_DEWT_082021.nc | 27-Oct-2024 21:19 | 428952 | ||
| SLXA2_TS_DEWT_082022.nc | 27-Oct-2024 21:19 | 429498 | ||
| SLXA2_TS_DEWT_082023.nc | 27-Oct-2024 21:19 | 429786 | ||
| SLXA2_TS_DEWT_082025.nc | 01-Sep-2025 08:09 | 440220 | ||
| SLXA2_TS_DEWT_092018.nc | 27-Oct-2024 21:19 | 586903 | ||
| SLXA2_TS_DEWT_092019.nc | 27-Oct-2024 21:19 | 587238 | ||
| SLXA2_TS_DEWT_092020.nc | 27-Oct-2024 21:19 | 440083 | ||
| SLXA2_TS_DEWT_092021.nc | 27-Oct-2024 21:19 | 587019 | ||
| SLXA2_TS_DEWT_092022.nc | 27-Oct-2024 21:19 | 587279 | ||
| SLXA2_TS_DEWT_092023.nc | 27-Oct-2024 21:19 | 440170 | ||
| SLXA2_TS_DEWT_092025.nc | 01-Oct-2025 10:06 | 586934 | ||
| SLXA2_TS_DEWT_102018.nc | 27-Oct-2024 21:19 | 439866 | ||
| SLXA2_TS_DEWT_102019.nc | 27-Oct-2024 21:19 | 438205 | ||
| SLXA2_TS_DEWT_102020.nc | 27-Oct-2024 21:19 | 437618 | ||
| SLXA2_TS_DEWT_102021.nc | 27-Oct-2024 21:20 | 587143 | ||
| SLXA2_TS_DEWT_102022.nc | 27-Oct-2024 21:20 | 587370 | ||
| SLXA2_TS_DEWT_102023.nc | 27-Oct-2024 21:20 | 438264 | ||
| SLXA2_TS_DEWT_102025.nc | 01-Nov-2025 09:37 | 587292 | ||
| SLXA2_TS_DEWT_112018.nc | 27-Oct-2024 21:20 | 587270 | ||
| SLXA2_TS_DEWT_112019.nc | 27-Oct-2024 21:20 | 426665 | ||
| SLXA2_TS_DEWT_112020.nc | 27-Oct-2024 21:20 | 426179 | ||
| SLXA2_TS_DEWT_112021.nc | 27-Oct-2024 21:20 | 429380 | ||
| SLXA2_TS_DEWT_112023.nc | 27-Oct-2024 21:20 | 439699 | ||
| SLXA2_TS_DEWT_112024.nc | 17-Jan-2025 21:13 | 440208 | ||
| SLXA2_TS_DEWT_112025.nc | 01-Dec-2025 11:43 | 440190 | ||
| SLXA2_TS_DEWT_122018.nc | 27-Oct-2024 21:20 | 439518 | ||
| SLXA2_TS_DEWT_122019.nc | 27-Oct-2024 21:20 | 440130 | ||
| SLXA2_TS_DEWT_122020.nc | 27-Oct-2024 21:20 | 439991 | ||
| SLXA2_TS_DEWT_122021.nc | 27-Oct-2024 21:20 | 440169 | ||
| SLXA2_TS_DEWT_122022.nc | 27-Oct-2024 21:20 | 440132 | ||
| SLXA2_TS_DEWT_122023.nc | 27-Oct-2024 21:21 | 437557 | ||
| SLXA2_TS_DEWT_122024.nc | 22-Jan-2025 20:49 | 438824 | ||
| SLXA2_TS_DEWT_122025.nc | 01-Jan-2026 10:58 | 440078 | ||